| time (UTC) | temp F | wind direction | speed MPH | gust MPH | rain 1hr in | rain 24hr in | rain mn in | humidity % | barometer mb |
| 20260906225032 | 75 | 342 | 2.0 | 4.0 | 0.00 | 0.00 | 0.00 | 61 | 1015.3 |
| 20260906224532 | 75 | 342 | 2.0 | 4.0 | 0.00 | 0.00 | 0.00 | 59 | 1015.2 |
| 20260906224032 | 75 | 342 | 3.0 | 6.0 | 0.00 | 0.00 | 0.00 | 58 | 1015.2 |
| 20260906223530 | 76 | 342 | 2.0 | 6.0 | 0.00 | 0.00 | 0.00 | 58 | 1015.2 |
| 20260906223250 | 76 | 346 | 2.0 | 5.0 | 0.00 | 0.00 | 0.00 | 58 | 1015.2 |
| 20260906222801 | 76 | 347 | 3.0 | 8.0 | 0.00 | 0.00 | 0.00 | 56 | 1015.2 |
| 20260906222252 | 76 | 347 | 4.0 | 10.0 | 0.00 | 0.00 | 0.00 | 56 | 1015.2 |
| 20260906222017 | 76 | 26 | 4.0 | 10.0 | 0.00 | 0.00 | 0.00 | 56 | 1015.3 |
| 20260906221028 | 76 | 335 | 4.0 | 8.0 | 0.00 | 0.00 | 0.00 | 59 | 1015.3 |
| 20260906220755 | 77 | 351 | 4.0 | 9.0 | 0.00 | 0.00 | 0.00 | 56 | 1015.2 |
| 20260906220631 | 77 | 355 | 4.0 | 9.0 | 0.00 | 0.00 | 0.00 | 57 | 1015.3 |
| 20260906215528 | 77 | 355 | 4.0 | 9.0 | 0.00 | 0.00 | 0.00 | 57 | 1015.2 |
| 20260906215251 | 77 | 355 | 4.0 | 9.0 | 0.00 | 0.00 | 0.00 | 56 | 1015.2 |
| 20260906214527 | 77 | 21 | 3.0 | 6.0 | 0.00 | 0.00 | 0.00 | 56 | 1015.2 |
| 20260906214029 | 78 | 43 | 3.0 | 7.0 | 0.00 | 0.00 | 0.00 | 57 | 1015.1 |
| 20260906213525 | 77 | 301 | 3.0 | 9.0 | 0.00 | 0.00 | 0.00 | 57 | 1015.1 |
| 20260906213026 | 77 | 326 | 5.0 | 11.0 | 0.00 | 0.00 | 0.00 | 57 | 1015.1 |
| 20260906212526 | 77 | 320 | 5.0 | 11.0 | 0.00 | 0.00 | 0.00 | 56 | 1015.1 |
| 20260906212025 | 78 | 0 | 4.0 | 10.0 | 0.00 | 0.00 | 0.00 | 56 | 1015.1 |
| 20260906211526 | 78 | 0 | 5.0 | 11.0 | 0.00 | 0.00 | 0.00 | 56 | 1015.1 |
| 20260906211026 | 78 | 19 | 5.0 | 11.0 | 0.00 | 0.00 | 0.00 | 55 | 1015.1 |
| 20260906210802 | 78 | 355 | 5.0 | 11.0 | 0.00 | 0.00 | 0.00 | 56 | 1015.0 |
| 20260906210025 | 78 | 355 | 5.0 | 11.0 | 0.00 | 0.00 | 0.00 | 55 | 1015.1 |
| 20260906205526 | 78 | 320 | 5.0 | 11.0 | 0.00 | 0.00 | 0.00 | 55 | 1015.1 |
| 20260906205249 | 78 | 344 | 5.0 | 12.0 | 0.00 | 0.00 | 0.00 | 58 | 1015.0 |
| 20260906204523 | 78 | 348 | 5.0 | 12.0 | 0.00 | 0.00 | 0.00 | 55 | 1015.0 |
| 20260906204247 | 78 | 0 | 3.0 | 10.0 | 0.00 | 0.00 | 0.00 | 55 | 1015.0 |
| 20260906203524 | 78 | 0 | 4.0 | 10.0 | 0.00 | 0.00 | 0.00 | 56 | 1015.0 |
| 20260906203021 | 78 | 5 | 4.0 | 10.0 | 0.00 | 0.00 | 0.00 | 54 | 1015.0 |
| 20260906202521 | 78 | 45 | 5.0 | 11.0 | 0.00 | 0.00 | 0.00 | 55 | 1015.0 |
| 20260906202020 | 78 | 24 | 4.0 | 11.0 | 0.00 | 0.00 | 0.00 | 54 | 1015.0 |
| 20260906201738 | 78 | 355 | 4.0 | 10.0 | 0.00 | 0.00 | 0.00 | 54 | 1015.0 |
| 20260906201233 | 78 | 38 | 4.0 | 11.0 | 0.00 | 0.00 | 0.00 | 55 | 1014.9 |
| 20260906200507 | 78 | 39 | 4.0 | 11.0 | 0.00 | 0.00 | 0.00 | 59 | 1014.9 |
| 20260906200005 | 78 | 44 | 4.0 | 11.0 | 0.00 | 0.00 | 0.00 | 56 | 1014.9 |
| 20260906195506 | 79 | 17 | 3.0 | 11.0 | 0.00 | 0.00 | 0.00 | 59 | 1014.9 |
| 20260906195003 | 78 | 31 | 4.0 | 10.0 | 0.00 | 0.00 | 0.00 | 60 | 1015.0 |
| 20260906194503 | 78 | 15 | 5.0 | 10.0 | 0.00 | 0.00 | 0.00 | 57 | 1015.1 |
| 20260906194227 | 78 | 348 | 6.0 | 12.0 | 0.00 | 0.00 | 0.00 | 57 | 1015.2 |
| 20260906193508 | 77 | 13 | 6.0 | 12.0 | 0.00 | 0.00 | 0.00 | 60 | 1015.2 |
| 20260906193005 | 77 | 355 | 5.0 | 11.0 | 0.00 | 0.00 | 0.00 | 60 | 1015.2 |
| 20260906192723 | 77 | 355 | 5.0 | 10.0 | 0.00 | 0.00 | 0.00 | 60 | 1015.2 |
| 20260906192004 | 77 | 36 | 5.0 | 12.0 | 0.00 | 0.00 | 0.00 | 60 | 1015.2 |
| 20260906191733 | 77 | 5 | 5.0 | 12.0 | 0.00 | 0.00 | 0.00 | 62 | 1015.2 |
| 20260906191223 | 77 | 13 | 5.0 | 13.0 | 0.00 | 0.00 | 0.00 | 63 | 1015.2 |
| 20260906190504 | 78 | 340 | 4.0 | 13.0 | 0.00 | 0.00 | 0.00 | 63 | 1015.2 |
| 20260906190003 | 78 | 0 | 4.0 | 9.0 | 0.00 | 0.00 | 0.00 | 63 | 1015.2 |
| 20260906185719 | 77 | 339 | 5.0 | 12.0 | 0.00 | 0.00 | 0.00 | 65 | 1015.3 |
| 20260906185003 | 77 | 0 | 5.0 | 12.0 | 0.00 | 0.00 | 0.00 | 65 | 1015.3 |
| 20260906184503 | 77 | 17 | 5.0 | 12.0 | 0.00 | 0.00 | 0.00 | 65 | 1015.3 |
| 20260906184008 | 77 | 11 | 6.0 | 14.0 | 0.00 | 0.00 | 0.00 | 64 | 1015.4 |
| 20260906183503 | 78 | 0 | 5.0 | 14.0 | 0.00 | 0.00 | 0.00 | 63 | 1015.3 |
| 20260906183003 | 78 | 32 | 5.0 | 11.0 | 0.00 | 0.00 | 0.00 | 61 | 1015.3 |
| 20260906182734 | 77 | 338 | 5.0 | 12.0 | 0.00 | 0.00 | 0.00 | 61 | 1015.4 |
| 20260906182001 | 77 | 11 | 5.0 | 12.0 | 0.00 | 0.00 | 0.00 | 65 | 1015.5 |
| 20260906181501 | 78 | 23 | 4.0 | 11.0 | 0.00 | 0.00 | 0.00 | 64 | 1015.4 |
| 20260906181002 | 78 | 35 | 4.0 | 10.0 | 0.00 | 0.00 | 0.00 | 67 | 1015.3 |
| 20260906180503 | 77 | 355 | 5.0 | 10.0 | 0.00 | 0.00 | 0.00 | 66 | 1015.3 |
| 20260906175959 | 78 | 76 | 5.0 | 12.0 | 0.00 | 0.00 | 0.00 | 65 | 1015.3 |
| 20260906175726 | 77 | 355 | 5.0 | 12.0 | 0.00 | 0.00 | 0.00 | 64 | 1015.4 |
| 20260906175219 | 76 | 355 | 4.0 | 10.0 | 0.00 | 0.00 | 0.00 | 67 | 1015.5 |
| 20260906174457 | 76 | 26 | 5.0 | 12.0 | 0.00 | 0.00 | 0.00 | 69 | 1015.6 |
| 20260906173956 | 75 | 5 | 5.0 | 12.0 | 0.00 | 0.00 | 0.00 | 67 | 1015.6 |
| 20260906173455 | 76 | 355 | 5.0 | 12.0 | 0.00 | 0.00 | 0.00 | 67 | 1015.6 |
| 20260906173000 | 76 | 355 | 5.0 | 13.0 | 0.00 | 0.00 | 0.00 | 67 | 1015.6 |
| 20260906172459 | 78 | 338 | 5.0 | 13.0 | 0.00 | 0.00 | 0.00 | 64 | 1015.5 |
| 20260906172230 | 78 | 39 | 4.0 | 11.0 | 0.00 | 0.00 | 0.00 | 67 | 1015.5 |
| 20260906171455 | 77 | 355 | 4.0 | 11.0 | 0.00 | 0.00 | 0.00 | 67 | 1015.5 |
| 20260906170952 | 77 | 0 | 5.0 | 11.0 | 0.00 | 0.00 | 0.00 | 66 | 1015.7 |
| 20260906170452 | 76 | 338 | 5.0 | 12.0 | 0.00 | 0.00 | 0.00 | 70 | 1015.7 |
| 20260906165951 | 76 | 315 | 4.0 | 12.0 | 0.00 | 0.00 | 0.00 | 70 | 1015.6 |
| 20260906165449 | 77 | 26 | 4.0 | 11.0 | 0.00 | 0.00 | 0.00 | 67 | 1015.6 |
| 20260906164947 | 77 | 325 | 4.0 | 10.0 | 0.00 | 0.00 | 0.00 | 70 | 1015.7 |
| 20260906164448 | 76 | 341 | 6.0 | 13.0 | 0.00 | 0.00 | 0.00 | 74 | 1015.7 |
| 20260906164214 | 75 | 348 | 6.0 | 13.0 | 0.00 | 0.00 | 0.00 | 71 | 1015.8 |
| 20260906163447 | 76 | 348 | 5.0 | 10.0 | 0.00 | 0.00 | 0.00 | 70 | 1015.7 |
| 20260906162948 | 75 | 11 | 6.0 | 13.0 | 0.00 | 0.00 | 0.00 | 74 | 1015.7 |
| 20260906162447 | 75 | 336 | 5.0 | 13.0 | 0.00 | 0.00 | 0.00 | 71 | 1015.8 |
| 20260906161948 | 76 | 317 | 4.0 | 10.0 | 0.00 | 0.00 | 0.00 | 69 | 1015.6 |
| 20260906161447 | 76 | 341 | 4.0 | 10.0 | 0.00 | 0.00 | 0.00 | 67 | 1015.6 |
| 20260906160947 | 76 | 355 | 3.0 | 8.0 | 0.00 | 0.00 | 0.00 | 71 | 1015.7 |
| 20260906160447 | 76 | 347 | 3.0 | 10.0 | 0.00 | 0.00 | 0.00 | 71 | 1015.7 |
| 20260906160216 | 76 | 11 | 4.0 | 11.0 | 0.00 | 0.00 | 0.00 | 73 | 1015.7 |
| 20260906155450 | 76 | 57 | 4.0 | 11.0 | 0.00 | 0.00 | 0.00 | 73 | 1015.6 |
| 20260906154946 | 75 | 36 | 4.0 | 10.0 | 0.00 | 0.00 | 0.00 | 72 | 1015.7 |
| 20260906154445 | 76 | 321 | 5.0 | 10.0 | 0.00 | 0.00 | 0.00 | 74 | 1015.6 |
| 20260906153947 | 75 | 13 | 5.0 | 11.0 | 0.00 | 0.00 | 0.00 | 72 | 1015.6 |
| 20260906153718 | 75 | 355 | 5.0 | 11.0 | 0.00 | 0.00 | 0.00 | 72 | 1015.7 |
| 20260906152944 | 75 | 29 | 5.0 | 12.0 | 0.00 | 0.00 | 0.00 | 73 | 1015.6 |
| 20260906152706 | 75 | 344 | 5.0 | 12.0 | 0.00 | 0.00 | 0.00 | 74 | 1015.6 |
| 20260906151946 | 74 | 344 | 4.0 | 11.0 | 0.00 | 0.00 | 0.00 | 74 | 1015.7 |
| 20260906151446 | 74 | 5 | 5.0 | 12.0 | 0.00 | 0.00 | 0.00 | 73 | 1015.6 |
| 20260906151207 | 74 | 355 | 5.0 | 12.0 | 0.00 | 0.00 | 0.00 | 73 | 1015.7 |
| 20260906150446 | 74 | 350 | 5.0 | 11.0 | 0.00 | 0.00 | 0.00 | 74 | 1015.7 |
| 20260906145943 | 74 | 341 | 6.0 | 12.0 | 0.00 | 0.00 | 0.00 | 74 | 1015.7 |
| 20260906145443 | 74 | 331 | 5.0 | 12.0 | 0.00 | 0.00 | 0.00 | 73 | 1015.7 |
| 20260906144943 | 74 | 20 | 5.0 | 10.0 | 0.00 | 0.00 | 0.00 | 75 | 1015.6 |
| 20260906144440 | 74 | 20 | 5.0 | 10.0 | 0.00 | 0.00 | 0.00 | 74 | 1015.5 |
| 20260906143941 | 74 | 355 | 4.0 | 10.0 | 0.00 | 0.00 | 0.00 | 75 | 1015.4 |
| 20260906143443 | 73 | 355 | 3.0 | 9.0 | 0.00 | 0.00 | 0.00 | 77 | 1015.4 |
| 20260906142941 | 73 | 22 | 4.0 | 9.0 | 0.00 | 0.00 | 0.00 | 75 | 1015.5 |
| 20260906142656 | 73 | 340 | 4.0 | 11.0 | 0.00 | 0.00 | 0.00 | 76 | 1015.5 |
| 20260906141937 | 72 | 5 | 4.0 | 11.0 | 0.00 | 0.00 | 0.00 | 76 | 1015.4 |
| 20260906141435 | 73 | 355 | 4.0 | 8.0 | 0.00 | 0.00 | 0.00 | 77 | 1015.3 |
| 20260906140933 | 72 | 22 | 4.0 | 6.0 | 0.00 | 0.00 | 0.00 | 77 | 1015.2 |
| 20260906140427 | 71 | 5 | 3.0 | 6.0 | 0.00 | 0.00 | 0.00 | 77 | 1015.2 |
| 20260906140149 | 72 | 51 | 3.0 | 8.0 | 0.00 | 0.00 | 0.00 | 79 | 1015.1 |
| 20260906135424 | 71 | 48 | 3.0 | 8.0 | 0.00 | 0.00 | 0.00 | 79 | 1015.3 |
| 20260906134925 | 71 | 40 | 4.0 | 8.0 | 0.00 | 0.00 | 0.00 | 81 | 1015.3 |
| 20260906134425 | 71 | 46 | 4.0 | 9.0 | 0.00 | 0.00 | 0.00 | 81 | 1015.3 |
| 20260906134149 | 70 | 17 | 4.0 | 9.0 | 0.00 | 0.00 | 0.00 | 81 | 1015.4 |
| 20260906133428 | 70 | 47 | 3.0 | 8.0 | 0.00 | 0.00 | 0.00 | 82 | 1015.3 |
| 20260906132927 | 70 | 5 | 3.0 | 8.0 | 0.00 | 0.00 | 0.00 | 84 | 1015.3 |
| 20260906132426 | 69 | 19 | 2.0 | 8.0 | 0.00 | 0.00 | 0.00 | 83 | 1015.2 |
| 20260906131926 | 69 | 342 | 1.0 | 5.0 | 0.00 | 0.00 | 0.00 | 83 | 1015.2 |
| 20260906131424 | 68 | 337 | 1.0 | 4.0 | 0.00 | 0.00 | 0.00 | 84 | 1015.2 |
| 20260906130925 | 68 | 337 | 2.0 | 5.0 | 0.00 | 0.00 | 0.00 | 85 | 1015.3 |
| 20260906130646 | 67 | 337 | 2.0 | 5.0 | 0.00 | 0.00 | 0.00 | 86 | 1015.3 |
| 20260906125923 | 67 | 336 | 2.0 | 5.0 | 0.00 | 0.00 | 0.00 | 88 | 1015.2 |
| 20260906125912 | 66 | 351 | 2.0 | 5.0 | 0.00 | 0.00 | 0.00 | 89 | 1015.3 |
| 20260906124920 | 66 | 355 | 2.0 | 4.0 | 0.00 | 0.00 | 0.00 | 89 | 1015.3 |
| 20260906124421 | 65 | 343 | 2.0 | 5.0 | 0.00 | 0.00 | 0.00 | 90 | 1015.2 |
| 20260906124146 | 65 | 343 | 3.0 | 5.0 | 0.00 | 0.00 | 0.00 | 91 | 1015.2 |
| 20260906123642 | 65 | 350 | 3.0 | 5.0 | 0.00 | 0.00 | 0.00 | 92 | 1015.2 |
| 20260906122917 | 64 | 0 | 2.0 | 5.0 | 0.00 | 0.00 | 0.00 | 92 | 1015.2 |
| 20260906122419 | 64 | 17 | 1.0 | 4.0 | 0.00 | 0.00 | 0.00 | 93 | 1015.1 |
| 20260906121915 | 63 | 22 | 0.0 | 3.0 | 0.00 | 0.00 | 0.00 | 93 | 1015.1 |
| 20260906121415 | 63 | 22 | 0.0 | 0.0 | 0.00 | 0.00 | 0.00 | 94 | 1015.0 |
| 20260906121134 | 62 | 22 | 0.0 | 0.0 | 0.00 | 0.00 | 0.00 | 94 | 1015.0 |
| 20260906120411 | 62 | 22 | 0.0 | 0.0 | 0.00 | 0.00 | 0.00 | 94 | 1015.0 |
| 20260906115910 | 61 | 22 | 0.0 | 0.0 | 0.00 | 0.00 | 0.00 | 94 | 1014.9 |
| 20260906115411 | 61 | 22 | 0.0 | 0.0 | 0.00 | 0.00 | 0.00 | 94 | 1014.8 |
| 20260906114912 | 60 | 22 | 0.0 | 0.0 | 0.00 | 0.00 | 0.00 | 94 | 1014.8 |
| 20260906114411 | 60 | 22 | 0.0 | 0.0 | 0.00 | 0.00 | 0.00 | 94 | 1014.8 |
| 20260906113911 | 60 | 22 | 0.0 | 0.0 | 0.00 | 0.00 | 0.00 | 94 | 1014.8 |
| 20260906113632 | 59 | 22 | 0.0 | 0.0 | 0.00 | 0.00 | 0.00 | 94 | 1014.7 |
| 20260906112911 | 59 | 22 | 0.0 | 0.0 | 0.00 | 0.00 | 0.00 | 94 | 1014.6 |
| 20260906112414 | 58 | 22 | 0.0 | 0.0 | 0.00 | 0.00 | 0.00 | 94 | 1014.5 |
| 20260906111911 | 58 | 22 | 0.0 | 0.0 | 0.00 | 0.00 | 0.00 | 94 | 1014.5 |
| 20260906111409 | 58 | 22 | 0.0 | 1.0 | 0.00 | 0.00 | 0.00 | 94 | 1014.5 |
| 20260906111132 | 58 | 22 | 0.0 | 1.0 | 0.00 | 0.00 | 0.00 | 94 | 1014.4 |
| 20260906110410 | 58 | 22 | 0.0 | 1.0 | 0.00 | 0.00 | 0.00 | 94 | 1014.4 |
| 20260906105910 | 58 | 22 | 0.0 | 0.0 | 0.00 | 0.00 | 0.00 | 94 | 1014.4 |
| 20260906105850 | 58 | 22 | 0.0 | 0.0 | 0.00 | 0.00 | 0.00 | 94 | 1014.2 |
| 20260906104911 | 58 | 22 | 0.0 | 0.0 | 0.00 | 0.00 | 0.00 | 94 | 1014.1 |
| 20260906104853 | 58 | 22 | 0.0 | 0.0 | 0.00 | 0.00 | 0.00 | 94 | 1014.1 |
| 20260906104505 | 58 | 22 | 0.0 | 0.0 | 0.00 | 0.00 | 0.00 | 94 | 1014.1 |
| 20260906103405 | 58 | 22 | 0.0 | 0.0 | 0.00 | 0.00 | 0.00 | 94 | 1013.8 |
| 20260906102905 | 58 | 22 | 0.0 | 0.0 | 0.00 | 0.00 | 0.00 | 94 | 1013.7 |
| 20260906102405 | 58 | 22 | 0.0 | 0.0 | 0.00 | 0.00 | 0.00 | 94 | 1013.8 |
| 20260906101904 | 58 | 22 | 0.0 | 0.0 | 0.00 | 0.00 | 0.00 | 94 | 1013.8 |
| 20260906101403 | 58 | 22 | 0.0 | 1.0 | 0.00 | 0.00 | 0.00 | 94 | 1013.7 |
| 20260906101130 | 58 | 22 | 0.0 | 3.0 | 0.00 | 0.00 | 0.00 | 94 | 1013.7 |
| 20260906100853 | 58 | 22 | 0.0 | 3.0 | 0.00 | 0.00 | 0.00 | 94 | 1013.7 |
| 20260906100122 | 58 | 22 | 0.0 | 0.0 | 0.00 | 0.00 | 0.00 | 94 | 1013.6 |
| 20260906095359 | 58 | 22 | 0.0 | 0.0 | 0.00 | 0.00 | 0.00 | 94 | 1013.5 |
| 20260906094856 | 58 | 22 | 0.0 | 0.0 | 0.00 | 0.00 | 0.00 | 94 | 1013.4 |
| 20260906094357 | 58 | 22 | 0.0 | 0.0 | 0.00 | 0.00 | 0.00 | 94 | 1013.4 |
| 20260906093854 | 58 | 22 | 0.0 | 0.0 | 0.00 | 0.00 | 0.00 | 94 | 1013.4 |
| 20260906093354 | 58 | 22 | 0.0 | 0.0 | 0.00 | 0.00 | 0.00 | 94 | 1013.4 |
| 20260906092853 | 58 | 22 | 0.0 | 0.0 | 0.00 | 0.00 | 0.00 | 94 | 1013.4 |
| 20260906092354 | 58 | 22 | 0.0 | 0.0 | 0.00 | 0.00 | 0.00 | 94 | 1013.3 |
| 20260906091849 | 58 | 22 | 0.0 | 0.0 | 0.00 | 0.00 | 0.00 | 94 | 1013.2 |
| 20260906091605 | 58 | 22 | 0.0 | 0.0 | 0.00 | 0.00 | 0.00 | 94 | 1013.1 |
| 20260906090848 | 58 | 22 | 0.0 | 0.0 | 0.00 | 0.00 | 0.00 | 94 | 1013.1 |
| 20260906090349 | 58 | 22 | 0.0 | 0.0 | 0.00 | 0.00 | 0.00 | 94 | 1013.0 |
| 20260906085850 | 58 | 22 | 0.0 | 0.0 | 0.00 | 0.00 | 0.00 | 94 | 1012.9 |
| 20260906085350 | 58 | 22 | 0.0 | 0.0 | 0.00 | 0.00 | 0.00 | 94 | 1012.8 |
| 20260906084848 | 59 | 22 | 0.0 | 0.0 | 0.00 | 0.00 | 0.00 | 94 | 1012.7 |
| 20260906084348 | 58 | 22 | 0.0 | 0.0 | 0.00 | 0.00 | 0.00 | 94 | 1012.7 |
| 20260906083848 | 58 | 22 | 0.0 | 0.0 | 0.00 | 0.00 | 0.00 | 94 | 1012.6 |
| 20260906083347 | 58 | 22 | 0.0 | 0.0 | 0.00 | 0.00 | 0.00 | 94 | 1012.6 |
| 20260906082846 | 59 | 22 | 0.0 | 0.0 | 0.00 | 0.00 | 0.00 | 94 | 1012.6 |
| 20260906082347 | 58 | 22 | 0.0 | 0.0 | 0.00 | 0.00 | 0.00 | 93 | 1012.5 |
| 20260906081845 | 59 | 22 | 0.0 | 0.0 | 0.00 | 0.00 | 0.00 | 94 | 1012.5 |
| 20260906081344 | 59 | 22 | 0.0 | 0.0 | 0.00 | 0.00 | 0.00 | 94 | 1012.5 |
| 20260906080840 | 59 | 22 | 0.0 | 0.0 | 0.00 | 0.00 | 0.00 | 94 | 1012.5 |
| 20260906080338 | 59 | 22 | 0.0 | 0.0 | 0.00 | 0.00 | 0.00 | 94 | 1012.5 |
| 20260906075841 | 59 | 22 | 0.0 | 0.0 | 0.00 | 0.00 | 0.00 | 94 | 1012.4 |
| 20260906075339 | 59 | 22 | 0.0 | 0.0 | 0.00 | 0.00 | 0.00 | 94 | 1012.5 |
| 20260906074837 | 59 | 22 | 0.0 | 0.0 | 0.00 | 0.00 | 0.00 | 93 | 1012.5 |
| 20260906074334 | 59 | 22 | 0.0 | 0.0 | 0.00 | 0.00 | 0.00 | 93 | 1012.5 |
| 20260906073830 | 59 | 22 | 0.0 | 0.0 | 0.00 | 0.00 | 0.00 | 93 | 1012.4 |
| 20260906073330 | 59 | 22 | 0.0 | 0.0 | 0.00 | 0.00 | 0.00 | 93 | 1012.4 |
| 20260906072830 | 59 | 22 | 0.0 | 0.0 | 0.00 | 0.00 | 0.00 | 93 | 1012.5 |
| 20260906072330 | 59 | 22 | 0.0 | 0.0 | 0.00 | 0.00 | 0.00 | 93 | 1012.6 |
| 20260906071826 | 59 | 22 | 0.0 | 0.0 | 0.00 | 0.00 | 0.00 | 93 | 1012.5 |
| 20260906071324 | 60 | 22 | 0.0 | 0.0 | 0.00 | 0.00 | 0.00 | 93 | 1012.5 |
| 20260906071308 | 60 | 22 | 0.0 | 0.0 | 0.00 | 0.00 | 0.00 | 93 | 1012.6 |
| 20260906070553 | 60 | 22 | 0.0 | 0.0 | 0.00 | 0.00 | 0.00 | 93 | 1012.6 |
| 20260906065824 | 60 | 22 | 0.0 | 0.0 | 0.00 | 0.00 | 0.00 | 93 | 1012.6 |
| 20260906065320 | 60 | 22 | 0.0 | 0.0 | 0.00 | 0.00 | 0.00 | 93 | 1012.6 |
| 20260906064818 | 60 | 22 | 0.0 | 0.0 | 0.00 | 0.00 | 0.00 | 93 | 1012.5 |
| 20260906064537 | 60 | 22 | 0.0 | 0.0 | 0.00 | 0.00 | 0.00 | 93 | 1012.5 |
| 20260906063816 | 60 | 22 | 0.0 | 0.0 | 0.00 | 0.00 | 0.00 | 93 | 1012.6 |
| 20260906063316 | 60 | 22 | 0.0 | 1.0 | 0.00 | 0.00 | 0.00 | 93 | 1012.5 |
| 20260906062817 | 60 | 22 | 0.0 | 2.0 | 0.00 | 0.00 | 0.00 | 93 | 1012.6 |
| 20260906062317 | 60 | 22 | 0.0 | 2.0 | 0.00 | 0.00 | 0.00 | 93 | 1012.6 |
| 20260906061812 | 60 | 22 | 0.0 | 0.0 | 0.00 | 0.00 | 0.00 | 93 | 1012.6 |
| 20260906061311 | 60 | 22 | 0.0 | 0.0 | 0.00 | 0.00 | 0.00 | 93 | 1012.7 |
| 20260906060813 | 60 | 22 | 0.0 | 0.0 | 0.00 | 0.00 | 0.00 | 93 | 1012.7 |
| 20260906060533 | 60 | 22 | 0.0 | 0.0 | 0.00 | 0.00 | 0.00 | 93 | 1012.7 |
| 20260906055809 | 60 | 22 | 0.0 | 0.0 | 0.00 | 0.00 | 0.00 | 93 | 1012.7 |
| 20260906055306 | 60 | 22 | 0.0 | 0.0 | 0.00 | 0.00 | 0.00 | 93 | 1012.7 |
| 20260906054756 | 60 | 22 | 0.0 | 0.0 | 0.00 | 0.00 | 0.00 | 93 | 1012.7 |
| 20260906054250 | 60 | 22 | 0.0 | 0.0 | 0.00 | 0.00 | 0.00 | 93 | 1012.7 |
| 20260906053749 | 60 | 22 | 0.0 | 0.0 | 0.00 | 0.00 | 0.00 | 93 | 1012.8 |
| 20260906053248 | 60 | 22 | 0.0 | 0.0 | 0.00 | 0.00 | 0.00 | 93 | 1012.8 |
| 20260906053008 | 60 | 22 | 0.0 | 0.0 | 0.00 | 0.00 | 0.00 | 93 | 1012.9 |
| 20260906052245 | 60 | 22 | 0.0 | 0.0 | 0.00 | 0.00 | 0.00 | 93 | 1012.9 |
| 20260906051746 | 60 | 22 | 0.0 | 0.0 | 0.00 | 0.00 | 0.00 | 93 | 1012.9 |
| 20260906051733 | 61 | 22 | 0.0 | 0.0 | 0.00 | 0.00 | 0.00 | 93 | 1013.0 |
| 20260906050743 | 61 | 22 | 0.0 | 0.0 | 0.00 | 0.00 | 0.00 | 93 | 1013.1 |
| 20260906050240 | 61 | 22 | 0.0 | 0.0 | 0.00 | 0.00 | 0.00 | 93 | 1013.1 |
| 20260906045739 | 61 | 22 | 0.0 | 0.0 | 0.00 | 0.00 | 0.00 | 93 | 1013.0 |
| 20260906045238 | 61 | 22 | 0.0 | 0.0 | 0.00 | 0.00 | 0.00 | 93 | 1012.9 |
| 20260906044734 | 61 | 22 | 0.0 | 0.0 | 0.00 | 0.00 | 0.00 | 93 | 1013.0 |
| 20260906044232 | 61 | 22 | 0.0 | 0.0 | 0.00 | 0.00 | 0.00 | 93 | 1013.0 |
| 20260906043734 | 61 | 22 | 0.0 | 0.0 | 0.00 | 0.00 | 0.00 | 93 | 1013.1 |
| 20260906043232 | 62 | 22 | 0.0 | 0.0 | 0.00 | 0.00 | 0.00 | 93 | 1013.1 |
| 20260906042950 | 62 | 22 | 0.0 | 0.0 | 0.00 | 0.00 | 0.00 | 93 | 1013.0 |
| 20260906042224 | 61 | 22 | 0.0 | 0.0 | 0.00 | 0.00 | 0.00 | 93 | 1013.1 |
| 20260906041725 | 62 | 22 | 0.0 | 0.0 | 0.00 | 0.00 | 0.00 | 92 | 1013.1 |
| 20260906041225 | 62 | 22 | 0.0 | 0.0 | 0.00 | 0.00 | 0.00 | 92 | 1013.1 |
| 20260906040951 | 62 | 22 | 0.0 | 0.0 | 0.00 | 0.00 | 0.00 | 92 | 1013.1 |
| 20260906040224 | 62 | 22 | 0.0 | 0.0 | 0.00 | 0.00 | 0.00 | 93 | 1013.2 |
| 20260906035726 | 62 | 22 | 0.0 | 0.0 | 0.00 | 0.00 | 0.00 | 92 | 1013.2 |
| 20260906035438 | 62 | 22 | 0.0 | 0.0 | 0.00 | 0.00 | 0.00 | 92 | 1013.1 |
| 20260906034718 | 62 | 22 | 0.0 | 0.0 | 0.00 | 0.00 | 0.00 | 92 | 1013.0 |
| 20260906034436 | 62 | 22 | 0.0 | 0.0 | 0.00 | 0.00 | 0.00 | 92 | 1013.0 |
| 20260906033708 | 62 | 22 | 0.0 | 0.0 | 0.00 | 0.00 | 0.00 | 92 | 1012.9 |
| 20260906033210 | 62 | 22 | 0.0 | 0.0 | 0.00 | 0.00 | 0.00 | 92 | 1012.9 |
| 20260906032708 | 62 | 22 | 0.0 | 0.0 | 0.00 | 0.00 | 0.00 | 92 | 1013.0 |
| 20260906032210 | 62 | 22 | 0.0 | 0.0 | 0.00 | 0.00 | 0.00 | 92 | 1013.0 |
| 20260906031705 | 62 | 22 | 0.0 | 0.0 | 0.00 | 0.00 | 0.00 | 92 | 1012.9 |
| 20260906031207 | 63 | 22 | 0.0 | 0.0 | 0.00 | 0.00 | 0.00 | 92 | 1012.8 |
| 20260906030931 | 63 | 22 | 0.0 | 0.0 | 0.00 | 0.00 | 0.00 | 92 | 1012.8 |
| 20260906030209 | 63 | 22 | 0.0 | 0.0 | 0.00 | 0.00 | 0.00 | 92 | 1012.9 |
| 20260906025705 | 63 | 22 | 0.0 | 0.0 | 0.00 | 0.00 | 0.00 | 92 | 1012.8 |
| 20260906025203 | 63 | 22 | 0.0 | 1.0 | 0.00 | 0.00 | 0.00 | 92 | 1012.8 |
| 20260906024701 | 63 | 22 | 0.0 | 1.0 | 0.00 | 0.00 | 0.00 | 92 | 1012.8 |
| 20260906024200 | 63 | 22 | 0.0 | 0.0 | 0.00 | 0.00 | 0.00 | 92 | 1012.8 |
| 20260906023701 | 63 | 22 | 0.0 | 1.0 | 0.00 | 0.00 | 0.00 | 92 | 1012.8 |
| 20260906023427 | 63 | 22 | 0.0 | 1.0 | 0.00 | 0.00 | 0.00 | 92 | 1012.7 |
| 20260906022658 | 64 | 22 | 0.0 | 1.0 | 0.00 | 0.00 | 0.00 | 92 | 1012.6 |
| 20260906022200 | 64 | 22 | 0.0 | 0.0 | 0.00 | 0.00 | 0.00 | 92 | 1012.5 |
| 20260906021659 | 64 | 22 | 0.0 | 0.0 | 0.00 | 0.00 | 0.00 | 91 | 1012.6 |
| 20260906021159 | 64 | 22 | 0.0 | 1.0 | 0.00 | 0.00 | 0.00 | 91 | 1012.5 |
| 20260906020658 | 64 | 22 | 0.0 | 1.0 | 0.00 | 0.00 | 0.00 | 91 | 1012.6 |
| 20260906020156 | 64 | 22 | 0.0 | 1.0 | 0.00 | 0.00 | 0.00 | 91 | 1012.4 |
| 20260906015917 | 64 | 22 | 0.0 | 0.0 | 0.00 | 0.00 | 0.00 | 91 | 1012.4 |
| 20260906015159 | 64 | 22 | 0.0 | 0.0 | 0.00 | 0.00 | 0.00 | 91 | 1012.5 |
| 20260906014657 | 64 | 22 | 0.0 | 0.0 | 0.00 | 0.00 | 0.00 | 91 | 1012.4 |
| 20260906014153 | 64 | 22 | 0.0 | 0.0 | 0.00 | 0.00 | 0.00 | 91 | 1012.4 |
| 20260906013653 | 64 | 22 | 0.0 | 0.0 | 0.00 | 0.00 | 0.00 | 90 | 1012.4 |
| 20260906013153 | 65 | 22 | 0.0 | 0.0 | 0.00 | 0.00 | 0.00 | 90 | 1012.4 |
| 20260906012650 | 65 | 22 | 0.0 | 1.0 | 0.00 | 0.00 | 0.00 | 90 | 1012.3 |
| 20260906012415 | 65 | 22 | 0.0 | 1.0 | 0.00 | 0.00 | 0.00 | 90 | 1012.3 |
| 20260906011647 | 65 | 22 | 0.0 | 0.0 | 0.00 | 0.00 | 0.00 | 90 | 1012.2 |
| 20260906011144 | 65 | 22 | 0.0 | 0.0 | 0.00 | 0.00 | 0.00 | 90 | 1012.1 |
| 20260906010641 | 66 | 22 | 0.0 | 1.0 | 0.00 | 0.00 | 0.00 | 89 | 1012.1 |
| 20260906010419 | 65 | 22 | 0.0 | 1.0 | 0.00 | 0.00 | 0.00 | 89 | 1012.1 |
| 20260906005643 | 65 | 22 | 0.0 | 0.0 | 0.00 | 0.00 | 0.00 | 89 | 1012.0 |
| 20260906005408 | 66 | 22 | 0.0 | 0.0 | 0.00 | 0.00 | 0.00 | 88 | 1011.9 |
| 20260906004646 | 66 | 22 | 0.0 | 0.0 | 0.00 | 0.00 | 0.00 | 88 | 1011.8 |
| 20260906004146 | 66 | 22 | 0.0 | 0.0 | 0.00 | 0.00 | 0.00 | 88 | 1011.9 |
| 20260906003642 | 66 | 22 | 0.0 | 0.0 | 0.00 | 0.00 | 0.00 | 88 | 1011.8 |
| 20260906003142 | 67 | 22 | 0.0 | 0.0 | 0.00 | 0.00 | 0.00 | 87 | 1011.6 |
| 20260906002643 | 67 | 22 | 0.0 | 0.0 | 0.00 | 0.00 | 0.00 | 86 | 1011.5 |
| 20260906002141 | 67 | 22 | 0.0 | 0.0 | 0.00 | 0.00 | 0.00 | 86 | 1011.5 |
| 20260906001641 | 67 | 22 | 0.0 | 0.0 | 0.00 | 0.00 | 0.00 | 86 | 1011.5 |
| 20260906001142 | 68 | 22 | 0.0 | 0.0 | 0.00 | 0.00 | 0.00 | 86 | 1011.5 |
| 20260906000643 | 68 | 22 | 0.0 | 0.0 | 0.00 | 0.00 | 0.00 | 85 | 1011.5 |
| 20260906000142 | 69 | 22 | 0.0 | 0.0 | 0.00 | 0.00 | 0.00 | 84 | 1011.4 |
| 20260905235641 | 69 | 22 | 0.0 | 0.0 | 0.00 | 0.00 | 0.00 | 82 | 1011.3 |
| 20260905235143 | 69 | 22 | 0.0 | 1.0 | 0.00 | 0.00 | 0.00 | 82 | 1011.2 |
| 20260905234906 | 69 | 22 | 0.0 | 1.0 | 0.00 | 0.00 | 0.00 | 81 | 1011.2 |
| 20260905234143 | 70 | 22 | 0.0 | 0.0 | 0.00 | 0.00 | 0.00 | 80 | 1011.2 |
| 20260905233641 | 71 | 22 | 0.0 | 0.0 | 0.00 | 0.00 | 0.00 | 78 | 1011.2 |
| 20260905233154 | 71 | 22 | 0.0 | 1.0 | 0.00 | 0.00 | 0.00 | 76 | 1011.2 |
| 20260905233127 | 72 | 22 | 0.0 | 2.0 | 0.00 | 0.00 | 0.00 | 75 | 1011.1 |
| 20260905232141 | 73 | 22 | 1.0 | 2.0 | 0.00 | 0.00 | 0.00 | 71 | 1011.1 |
| 20260905231640 | 74 | 22 | 1.0 | 2.0 | 0.00 | 0.00 | 0.00 | 69 | 1011.0 |
| 20260905231142 | 74 | 22 | 1.0 | 2.0 | 0.00 | 0.00 | 0.00 | 68 | 1010.9 |
| 20260905230643 | 75 | 22 | 2.0 | 4.0 | 0.00 | 0.00 | 0.00 | 66 | 1010.9 |
| 20260905230358 | 76 | 22 | 2.0 | 4.0 | 0.00 | 0.00 | 0.00 | 63 | 1010.9 |
| 20260905225640 | 76 | 26 | 1.0 | 3.0 | 0.00 | 0.00 | 0.00 | 63 | 1011.0 |